RH
45 44 43 43 42 41 38 37 36 35 32 29 28 27 25 23 20 18 17 18 18 20 21 22 21 20 19 18 19 19 15 12 11 10 11 13 13 14 15 16 16 15 15 14 13 12 9 7 6 6 7 7 8 10 10 12 12 13 18 19 20 21 18 16 14 13 15 16 16 14 13 13 13 12 12 13 13 13 14 14 14 14 13 13 12 12 12 12
39 39 38 38 37 36 34 34 32 30 27 26 25 24 22 20 18 18 19 19 18 19 22 23 23 22 20 19 19 17 14 12 11 9 10 13 14 15 16 16 16 15 14 13 13 11 9 7 6 6 6 6 8 9 10 11 10 12 16 16 18 19 15 15 15 12 14 15 15 14 13 12 11 12 12 12 12 12 13 13 12 13 13 13 13 13 12 12
31 31 31 31 31 31 29 29 27 26 25 24 23 22 20 18 17 18 19 19 18 18 21 24 24 23 21 19 18 16 13 11 11 10 11 13 15 16 16 16 16 15 14 14 13 10 9 7 6 5 5 6 8 9 9 9 9 11 12 14 18 17 14 15 15 14 14 14 14 14 13 11 10 11 12 11 11 13 13 12 12 13 12 12 12 12 13 13
24 25 25 26 27 27 25 25 25 25 24 22 21 20 18 16 16 17 18 19 18 18 21 23 23 22 21 18 18 15 12 12 13 12 12 12 14 15 16 16 16 15 14 14 13 11 9 7 6 6 6 6 7 7 8 8 9 10 11 15 16 13 13 15 14 14 14 13 13 12 12 10 10 11 11 11 12 14 13 10 10 11 11 11 12 12 12 12
22 22 22 23 24 24 24 24 23 22 21 19 19 18 16 15 16 16 17 18 18 19 19 20 20 19 18 18 18 15 14 18 19 15 13 12 13 15 16 16 16 15 14 14 13 11 9 7 6 6 6 6 7 7 8 7 8 9 11 12 11 9 11 13 13 13 13 12 11 10 11 10 10 11 11 12 12 12 11 9 10 10 10 11 11 12 13 13
22 23 23 22 22 23 22 21 21 20 19 19 19 19 16 15 16 17 17 16 17 17 16 15 14 14 14 15 17 15 17 22 21 17 15 13 14 15 15 16 16 16 15 14 13 11 9 7 7 6 6 8 9 9 9 8 7 9 10 9 8 8 9 10 10 11 10 10 9 10 11 11 10 11 11 12 12 11 10 10 11 11 11 12 12 13 14 14
24 25 25 22 21 21 20 20 19 18 19 20 21 19 16 15 15 16 16 15 16 15 14 12 11 12 11 12 14 16 19 23 21 19 18 16 17 17 16 16 16 17 15 14 12 10 9 7 7 6 7 9 10 10 9 9 8 9 12 10 9 8 8 9 9 9 9 9 10 10 11 11 12 12 12 12 12 11 11 11 12 12 12 13 14 14 15 15
27 26 25 23 21 19 18 18 18 19 21 21 20 18 16 14 15 15 15 14 15 15 14 12 11 12 11 11 14 17 21 24 23 22 20 19 19 19 18 18 17 17 15 13 12 10 8 7 7 6 8 9 9 11 10 10 10 11 12 11 9 9 9 9 9 10 10 10 10 10 11 11 12 12 12 11 11 11 12 13 13 13 13 14 15 15 15 15
28 27 25 22 20 19 18 18 19 22 22 20 19 18 16 15 15 16 16 15 15 15 14 13 13 12 13 14 17 20 21 22 22 21 21 20 19 18 18 17 15 14 11 11 10 9 9 8 8 8 9 9 9 11 10 10 13 12 11 11 10 9 9 9 10 10 10 10 11 11 12 12 12 12 12 11 11 12 12 13 13 14 14 15 15 15 15 16
27 25 23 21 20 19 19 20 23 24 22 18 17 16 15 14 15 17 17 16 14 14 14 13 14 14 16 17 21 24 22 20 20 19 18 17 17 16 16 14 12 9 8 8 8 8 8 9 10 10 10 10 10 11 11 11 12 12 11 11 11 10 10 10 10 11 11 11 11 12 13 12 12 13 13 12 11 13 13 13 13 14 14 15 15 16 16 16
27 26 24 23 22 22 23 24 24 22 19 16 16 16 15 13 13 17 18 15 13 14 14 15 15 16 18 20 24 26 22 20 20 18 17 17 16 15 13 11 9 8 7 8 9 9 9 9 10 10 11 12 13 14 14 12 12 12 11 11 13 12 10 11 11 11 12 12 12 12 13 13 13 14 13 11 11 12 13 13 13 14 14 14 15 15 16 16
26 25 25 24 23 24 24 24 21 19 16 15 16 18 17 14 13 17 18 15 13 14 16 17 18 20 22 23 26 26 23 22 21 19 18 17 16 14 13 11 8 8 8 8 10 10 10 10 9 10 11 12 14 15 14 14 13 12 12 14 17 16 13 12 12 12 12 13 13 13 14 14 14 14 12 11 11 12 13 14 14 14 14 14 14 16 16 17
23 24 24 23 23 23 23 22 20 18 16 15 15 16 17 16 14 15 17 15 13 15 17 19 22 24 26 27 28 27 24 22 20 19 17 16 15 13 12 11 9 9 9 8 9 10 10 10 9 10 11 11 14 14 13 12 12 13 13 15 18 19 18 15 12 13 13 14 14 14 15 16 15 13 11 11 12 12 13 14 14 14 15 15 15 16 16 17
23 23 23 24 23 23 23 22 21 19 18 17 16 16 16 16 15 14 15 15 14 16 18 20 23 24 27 28 28 28 26 23 21 20 17 16 14 12 10 10 10 10 10 9 10 9 9 10 10 11 11 13 14 13 15 14 13 15 15 17 18 19 22 18 13 15 15 15 14 15 17 15 13 12 11 12 12 13 13 14 14 15 16 17 16 16 17 17
24 24 24 24 23 23 23 23 22 21 20 18 17 16 15 17 18 17 17 17 17 17 19 22 24 25 26 27 25 26 26 25 24 22 20 19 16 13 11 10 10 11 10 10 10 9 10 10 11 13 13 13 14 16 20 19 16 16 16 23 23 21 25 20 13 15 15 16 15 16 19 16 13 12 12 12 12 13 14 14 14 16 18 18 17 16 17 17
22 23 24 23 22 22 22 22 22 22 20 18 16 14 14 16 19 21 22 22 21 21 21 25 28 27 28 28 24 23 23 23 24 23 22 19 15 13 11 11 11 11 11 10 10 10 11 11 12 14 14 14 17 19 21 21 20 19 18 23 24 22 25 21 16 16 16 16 16 16 18 17 14 13 12 13 13 14 15 15 16 17 18 18 17 17 17 18
21 21 21 20 20 19 18 18 18 19 18 17 16 14 15 17 19 22 24 24 26 25 25 28 30 28 29 28 25 22 19 18 18 19 20 17 15 13 12 12 12 11 10 10 10 10 11 12 13 15 15 16 21 20 19 22 22 21 19 22 25 23 21 21 20 18 16 17 16 17 17 16 14 14 13 14 15 15 16 17 18 19 19 18 17 17 18 19
25 21 20 18 17 16 15 15 15 14 14 16 17 15 17 19 21 22 23 24 26 28 28 28 28 28 29 28 25 20 16 14 13 14 16 16 16 14 12 12 11 11 12 12 12 11 12 13 14 16 17 17 20 20 20 24 25 22 22 22 24 23 19 19 20 18 17 17 17 18 18 17 16 15 15 16 16 16 17 18 19 19 19 18 18 19 19 19
32 27 24 21 19 17 15 14 13 12 12 15 17 17 18 21 22 23 24 22 24 28 29 28 27 28 28 26 22 18 14 13 13 13 13 14 14 13 12 11 11 12 13 15 15 13 13 15 15 17 20 20 20 22 22 26 26 23 25 23 21 21 18 17 19 19 19 18 19 20 19 19 18 17 17 17 17 16 17 18 19 19 20 20 20 19 19 20
35 32 29 26 24 21 19 16 14 12 11 12 16 17 18 20 24 26 23 21 22 24 24 23 22 22 23 22 20 17 15 15 15 15 14 14 13 13 13 11 13 13 15 18 18 15 14 16 18 20 23 23 21 23 24 25 24 21 21 20 20 20 19 18 20 21 21 20 23 23 22 22 20 18 18 17 17 17 17 19 19 21 21 21 21 20 21 22
32 32 31 30 28 24 23 21 16 14 12 12 13 17 19 21 25 26 20 18 20 20 19 17 15 14 16 16 17 17 16 16 16 17 16 16 14 14 13 13 14 15 16 16 16 15 14 16 20 22 24 22 21 24 24 22 21 20 19 18 20 22 20 20 22 23 22 21 25 25 22 21 19 18 18 17 18 19 19 20 21 22 22 22 21 22 23 25
30 31 33 33 31 28 26 24 19 15 14 13 12 15 19 20 21 22 17 16 17 16 16 14 12 12 12 12 14 15 16 17 16 16 16 15 15 14 14 14 15 17 18 16 16 17 17 18 20 21 22 22 23 25 23 22 20 19 20 20 21 23 22 22 23 24 24 22 24 25 21 19 19 19 18 18 20 22 21 22 23 23 22 22 23 24 26 27
31 33 35 35 34 30 28 24 19 16 14 13 13 14 16 18 19 19 17 18 17 16 16 14 13 14 13 12 14 14 15 17 16 16 15 14 15 15 15 15 16 18 18 19 19 19 20 21 20 19 21 22 23 23 22 23 23 21 20 20 22 23 22 23 26 26 26 23 22 23 22 22 21 19 19 20 21 23 22 22 23 23 23 25 25 27 28 29
33 34 35 34 33 31 28 24 20 17 14 14 15 14 14 15 17 17 17 17 19 18 17 16 15 15 15 14 14 16 16 16 16 16 15 14 15 15 15 16 16 17 19 21 20 20 21 20 18 18 20 20 20 22 22 20 24 26 23 22 24 24 22 24 27 26 25 27 25 23 25 26 23 21 22 22 22 23 24 24 24 25 26 27 28 30 30 31
34 34 34 32 31 30 27 23 21 19 16 18 20 17 14 14 14 15 15 16 19 21 20 18 18 17 17 16 15 15 14 15 16 17 16 14 14 15 17 16 15 17 22 21 19 20 20 18 19 20 21 20 19 22 24 22 24 26 24 24 24 23 22 24 27 24 23 26 26 23 26 30 26 23 24 24 25 26 25 26 27 28 29 29 31 32 33 33
34 35 35 33 30 28 26 24 23 20 20 24 25 22 18 15 12 12 14 18 21 21 20 19 18 18 17 15 14 13 14 17 16 14 14 14 14 15 17 18 16 17 21 18 17 19 20 20 22 24 23 23 22 23 24 24 24 23 23 25 24 22 22 23 24 23 23 25 23 22 26 31 29 27 27 27 28 28 28 29 30 30 31 31 33 34 34 35
35 37 37 35 31 27 25 24 22 22 24 28 29 27 24 19 14 12 15 20 21 19 18 17 15 16 15 14 14 12 13 15 14 14 14 13 14 14 16 20 19 19 19 17 18 21 23 23 22 23 22 22 24 23 22 25 24 22 24 25 23 21 21 23 22 23 26 26 26 27 27 29 33 32 30 30 30 31 32 33 33 33 34 34 35 36 37 39
36 36 37 36 31 26 24 23 23 24 27 30 31 29 26 22 17 16 19 18 18 18 17 15 13 13 14 13 14 13 12 13 12 15 14 11 14 15 17 21 20 21 21 18 20 23 24 23 23 24 22 22 25 22 21 22 20 22 25 25 22 21 22 23 24 26 29 28 30 33 30 31 38 35 31 33 34 35 36 37 37 36 37 38 39 40 42 43
35 35 36 34 29 25 23 23 25 28 30 30 30 28 24 20 18 23 24 18 17 18 16 16 14 13 14 13 14 13 12 13 14 14 14 13 15 15 18 21 20 22 23 20 21 23 24 22 24 23 21 23 23 21 22 21 20 23 25 25 25 25 24 23 26 29 30 31 34 36 32 34 41 36 31 35 38 39 40 40 40 40 41 42 43 45 46 46
36 35 34 30 26 24 23 25 28 31 31 28 26 23 19 18 21 24 23 17 18 18 14 15 15 13 14 15 17 16 14 16 16 14 16 17 16 14 16 18 19 23 25 23 23 26 25 22 22 24 22 23 21 20 22 22 22 22 23 26 27 28 28 27 31 31 32 39 39 36 34 35 40 39 36 39 41 42 43 43 44 44 44 46 47 48 49 48
35 32 30 26 23 23 26 30 32 32 31 26 22 19 18 23 27 23 17 15 19 19 14 15 16 16 16 17 18 18 18 19 18 17 17 19 20 18 19 19 19 25 28 26 26 28 26 22 23 24 23 23 22 22 24 25 24 23 25 26 24 28 29 30 36 34 36 45 38 33 36 36 40 43 42 43 44 46 47 47 48 47 46 47 49 49 48 46
32 30 27 25 24 25 27 31 34 33 31 27 23 22 25 28 28 24 19 16 17 16 14 15 16 17 18 19 19 20 21 20 19 19 18 20 23 21 20 20 18 22 26 24 22 24 25 25 27 25 23 23 24 24 27 28 27 26 28 25 28 34 31 32 40 37 37 42 34 31 35 35 39 44 44 47 48 49 50 49 49 49 48 48 48 47 46 45
30 28 25 25 25 25 28 33 33 31 29 26 24 28 32 30 25 22 20 18 15 14 15 16 18 19 19 19 21 21 20 18 19 20 19 21 24 21 20 23 22 19 21 21 20 21 25 27 28 27 25 24 23 22 23 25 25 25 24 25 32 36 31 37 45 39 37 39 32 31 33 37 44 46 48 51 50 51 51 48 48 48 47 47 47 48 49 50
27 26 25 26 25 25 30 33 30 27 25 23 26 31 31 27 23 22 21 20 18 16 16 18 19 21 19 18 20 20 17 16 18 18 20 22 23 21 22 24 25 22 20 21 21 21 23 25 26 27 24 24 24 23 22 23 25 26 25 27 31 31 31 39 43 40 41 42 37 35 37 44 50 50 52 53 50 51 49 47 47 48 49 51 53 56 58 59
25 26 27 26 24 26 30 29 26 24 21 22 29 32 27 24 22 22 22 21 19 16 16 18 19 20 20 19 21 19 13 14 17 17 18 21 21 22 22 22 23 24 22 23 22 21 23 24 26 26 22 22 25 26 25 24 25 27 28 30 33 34 34 38 42 40 40 43 45 45 44 48 52 52 53 52 51 50 49 49 51 53 57 60 62 64 64 66
26 27 27 26 26 27 27 24 22 20 18 24 32 29 24 22 19 21 22 19 17 16 16 20 20 18 19 19 19 18 13 14 18 15 16 20 22 23 24 23 23 24 23 23 23 23 24 25 26 24 23 25 25 25 26 25 25 27 29 31 33 34 34 38 43 43 41 44 48 47 48 51 51 51 52 53 55 57 58 60 61 63 66 67 68 68 67 68
29 28 27 27 26 24 21 18 19 16 17 25 28 22 20 20 18 21 22 17 16 16 16 18 18 15 16 16 16 16 13 14 17 15 15 20 23 23 26 26 24 24 23 22 24 25 23 24 27 25 25 26 24 24 27 27 26 29 32 33 34 35 38 40 44 50 54 53 49 44 46 51 54 57 59 63 67 68 69 70 68 68 69 69 69 69 70 72
30 27 28 25 21 18 17 17 16 14 16 22 21 17 19 21 18 20 20 17 17 18 17 16 15 14 14 14 16 16 15 15 16 16 16 20 23 23 25 27 25 24 23 22 23 25 24 25 28 26 26 27 26 26 30 32 32 33 34 35 35 37 42 44 46 53 58 57 54 52 53 58 64 68 69 71 73 72 73 73 71 70 69 69 70 70 71 71
28 24 25 21 17 16 15 14 12 12 16 20 18 16 19 22 20 17 17 19 19 18 16 15 14 15 16 15 17 18 16 15 16 17 17 20 23 24 25 27 26 25 24 23 25 27 26 27 28 28 27 27 28 30 34 37 37 36 37 39 40 41 43 45 44 47 53 58 63 68 71 71 69 71 72 73 73 74 73 73 71 70 69 68 67 65 63 61
22 21 22 18 14 12 10 10 10 12 17 16 15 17 20 22 22 18 17 20 21 17 17 17 17 17 19 19 18 17 17 17 18 18 20 21 23 25 28 30 31 31 28 26 27 29 28 29 30 31 30 29 30 33 35 37 37 37 40 41 41 43 44 45 46 48 54 63 72 80 84 78 69 72 74 74 75 75 74 73 70 67 64 61 59 57 57 57
18 20 19 13 10 7 8 10 9 12 17 15 15 22 24 23 23 21 18 19 20 18 17 19 19 18 20 21 20 19 19 21 20 21 22 23 23 25 30 33 35 35 30 27 28 29 29 30 31 32 32 30 31 33 35 36 36 38 39 38 39 44 47 50 57 61 61 66 73 81 87 81 73 73 75 74 75 74 71 68 63 59 57 55 55 57 57 57
16 17 14 9 7 6 9 13 11 14 19 16 15 20 23 23 22 21 19 19 20 20 18 20 21 20 21 21 21 21 21 22 24 23 23 25 26 27 32 36 37 36 31 28 30 30 30 31 32 33 33 30 31 33 33 35 36 37 39 41 46 53 53 55 64 69 68 69 71 76 83 82 74 72 74 72 70 65 61 59 56 55 55 56 57 56 55 54
12 11 9 7 6 6 10 15 17 20 20 17 18 20 21 22 22 20 20 21 22 21 20 22 22 21 21 21 22 23 21 21 25 25 24 28 30 30 32 34 36 36 33 32 33 32 31 32 33 35 34 31 30 31 32 36 39 40 44 48 54 58 58 59 66 71 72 74 73 76 83 83 74 69 67 63 60 57 55 54 53 54 54 55 53 50 49 50
9 9 9 8 7 8 11 14 18 21 20 20 22 22 20 21 23 24 24 22 22 22 21 24 23 22 22 23 24 25 24 22 24 26 24 26 29 31 31 33 37 38 35 34 35 33 31 32 33 35 36 37 38 40 42 45 45 45 50 55 59 64 67 69 72 75 78 79 78 80 84 78 66 60 55 52 51 51 50 51 51 51 51 50 47 45 46 45
9 10 10 10 8 8 12 15 17 19 20 21 21 19 20 22 22 23 25 25 23 23 23 24 25 24 25 26 27 29 28 24 23 25 25 26 32 36 35 34 38 39 36 34 34 31 30 30 30 33 38 43 47 50 51 50 49 51 57 62 65 68 70 72 75 77 80 78 71 69 69 60 51 49 46 44 45 44 45 47 47 47 48 47 42 40 40 37
9 12 13 13 11 10 12 14 16 18 21 21 20 19 21 24 23 22 25 27 25 24 25 25 26 26 27 28 29 30 30 27 25 27 30 30 34 37 36 34 35 34 32 30 28 29 32 35 37 40 45 48 50 51 51 52 54 59 65 69 72 73 72 72 74 73 70 66 60 56 52 46 43 44 43 43 45 46 46 45 45 45 45 41 38 37 36 33
12 15 16 15 14 15 16 15 16 18 19 19 21 21 21 24 26 25 26 27 25 25 27 27 27 26 26 28 29 29 30 30 28 29 30 31 32 33 33 33 32 30 29 28 28 34 40 44 46 47 49 51 52 52 56 59 61 65 68 70 73 73 70 67 64 58 53 54 54 50 44 42 44 47 48 50 51 49 48 46 45 45 41 38 36 36 33 30
13 16 16 15 17 19 19 16 17 21 23 22 23 24 24 26 27 24 24 26 27 27 27 26 26 27 27 29 30 29 30 29 28 29 28 27 29 30 29 30 29 29 31 32 34 41 46 47 48 48 49 53 56 59 63 64 64 66 65 63 64 63 58 53 49 45 43 46 48 45 44 47 51 53 53 54 52 48 46 46 46 44 39 36 35 33 30 29
14 16 16 16 18 18 16 16 19 24 26 25 25 26 25 27 27 24 24 27 28 27 24 23 27 31 32 31 29 29 29 27 25 27 26 25 27 28 27 28 30 33 37 39 41 42 44 48 51 52 56 60 62 67 68 64 62 60 56 53 52 50 46 44 44 43 42 44 46 47 51 55 56 53 50 48 46 46 46 47 47 42 35 32 32 30 29 28
14 16 16 17 19 18 17 18 21 26 27 25 26 26 26 28 29 27 27 27 25 26 26 26 31 35 34 31 29 29 30 27 25 25 26 27 29 30 30 33 36 39 41 42 43 42 43 51 57 58 63 67 66 65 64 58 55 52 48 47 45 43 45 45 44 45 47 50 51 53 56 56 50 46 43 41 43 46 48 47 43 34 30 30 30 29 29 28
14 16 15 17 21 21 20 20 22 27 28 27 27 27 27 30 30 28 29 26 23 27 30 30 32 36 34 32 32 33 32 31 30 29 30 31 32 34 35 36 38 41 43 46 49 51 53 59 64 63 66 67 62 59 56 51 49 49 47 45 44 45 49 49 49 51 55 57 57 56 57 53 44 40 40 41 44 46 45 42 35 29 29 32 31 29 29 28
14 16 16 18 23 23 21 23 25 26 25 25 28 28 27 28 28 26 25 24 25 29 30 29 31 33 32 33 35 33 30 30 32 32 32 33 34 35 36 36 38 43 49 54 58 61 62 63 65 66 65 62 57 52 48 46 50 52 49 46 46 49 52 53 55 57 57 56 56 55 55 51 45 45 45 42 42 40 37 34 31 32 32 31 31 30 31 30